Location: Unspecified
(51.0950°N, 12.9690°E)
Time: 17:07:55
(UTC+00:00)

ISS - Pass Details

Date: 02 December 2023
Orbit: 414 x 417 km, 51.6° (Epoch: 23 February)

Event Time Altitude Azimuth Distance (km) Brightness Sun altitude
Rises 16:28:13 0° 285° (WNW) 2,379 1.1 -12.5°
Reaches altitude 10° 16:30:20 10° 280° (W) 1,516 0.1 -12.9°
Maximum altitude 16:33:39 51° 204° (SSW) 546 -2.9 -13.3°
Enters shadow 16:36:49 11° 128° (SE) 1,455 -1.3 -13.8°
